Theta_e
313 314 315 316 318 318 317 318 319 319 320 322 320 320 323 325 320 318 326 330 325 329 334 336 339 340 336 336 336 335 335 335 338 339 337 334 335 339 343 347 352 355 359 366 367 364 363 363 361 359 361 362 362 363 364 363 364 363 363 363 363 366 366 366 367 367 367 365 363 362 363 363 361 359 358 358 356 358 361 360 358 355 354 357 361 362 362
312 312 313 314 315 315 317 317 318 319 320 321 321 323 325 325 323 325 330 331 331 333 334 339 343 341 338 338 337 335 338 341 342 342 340 336 336 338 340 344 349 352 356 362 366 367 366 364 361 360 361 362 363 362 363 364 362 362 363 363 363 366 367 366 368 368 368 367 365 363 364 363 362 361 360 359 358 358 361 361 359 358 355 355 359 361 363
312 311 312 313 313 314 316 316 318 319 320 321 322 323 325 325 325 327 329 328 330 333 333 337 340 339 338 338 337 336 341 343 344 343 342 343 343 343 343 344 347 351 353 357 364 367 368 364 362 359 360 362 362 362 363 362 362 363 363 364 365 366 368 368 369 369 370 368 366 364 364 365 364 362 361 360 360 360 362 363 362 360 358 355 356 359 361
311 310 311 312 312 313 315 315 318 318 318 319 320 321 324 324 323 325 325 323 328 333 332 336 341 339 337 339 339 340 343 345 347 345 344 345 346 346 346 349 352 355 354 354 359 364 364 363 362 359 360 361 362 362 362 362 362 362 363 366 365 367 368 368 369 371 371 370 368 366 366 368 367 365 363 362 362 362 362 363 364 362 360 359 358 357 359
310 310 310 311 311 312 313 315 318 319 319 320 320 321 324 325 325 324 322 323 329 333 333 337 342 340 339 342 344 343 343 343 343 345 347 348 346 345 347 350 352 356 356 355 356 361 363 362 359 358 359 361 361 362 362 362 362 362 363 365 366 367 368 369 371 372 372 372 370 368 368 370 369 368 365 364 364 364 364 365 365 364 362 361 360 359 358
311 311 311 312 313 313 314 316 318 319 320 320 320 321 322 325 325 324 325 328 332 337 339 340 343 343 343 344 343 341 340 338 338 343 349 352 350 349 350 351 352 355 362 364 363 363 362 362 360 359 357 360 361 362 362 362 362 362 363 365 367 367 369 370 372 371 372 372 371 370 370 371 371 370 367 367 367 367 366 366 366 366 365 363 362 361 360
311 311 312 314 315 314 315 316 318 318 319 320 321 322 322 324 324 325 328 330 332 337 341 340 341 342 342 341 341 339 337 339 341 346 351 353 353 352 354 357 357 359 363 366 367 365 361 358 361 360 357 358 360 361 361 362 362 363 364 365 367 369 369 370 371 371 372 372 372 372 372 371 372 371 369 369 369 368 367 366 367 368 366 365 365 364 363
310 311 312 313 314 314 315 316 317 318 320 322 322 321 322 325 329 332 333 332 333 336 337 337 338 339 339 339 340 339 340 344 347 349 350 352 351 353 354 355 358 361 362 363 366 368 363 358 357 360 359 356 360 362 362 363 363 363 363 365 367 369 369 370 371 371 371 372 372 373 372 372 372 371 370 370 370 369 367 365 366 368 367 366 366 366 365
310 310 311 312 313 313 314 315 317 318 321 326 327 328 329 329 331 333 335 336 336 335 335 336 336 338 339 339 340 341 340 339 341 343 346 348 350 351 354 355 357 360 361 363 365 365 363 358 355 359 360 356 358 361 362 363 364 363 364 366 368 369 369 370 372 372 372 372 372 372 372 372 372 371 372 371 370 369 368 365 365 367 367 366 366 366 366
310 310 311 312 313 314 315 319 323 323 327 330 332 333 336 334 330 332 334 335 335 334 333 334 336 340 341 339 340 339 334 333 336 339 342 345 347 351 354 357 357 358 361 363 363 363 360 357 353 356 360 358 358 362 362 364 365 364 364 366 368 369 370 370 372 372 371 372 372 372 373 373 372 371 371 371 371 370 369 366 364 363 366 366 366 366 366
311 309 310 312 313 315 322 328 326 323 326 328 329 335 338 335 330 331 331 331 332 331 330 333 338 343 345 342 339 332 329 329 333 337 342 344 347 352 355 356 357 358 359 362 362 362 359 354 351 355 359 359 358 362 363 364 364 364 364 366 370 370 370 370 371 372 371 372 373 372 373 372 372 372 371 370 370 370 368 367 363 361 363 364 365 365 366
312 311 311 311 311 317 326 328 324 322 324 326 331 338 338 333 328 328 329 329 329 329 331 334 337 340 341 339 333 327 326 328 331 337 342 342 345 351 354 356 357 358 359 360 362 361 358 353 352 355 359 359 359 362 365 365 364 365 366 367 369 370 370 370 371 371 372 372 372 372 373 372 371 371 370 370 370 369 368 366 365 362 361 361 363 363 364
312 312 311 310 312 320 325 325 323 323 324 328 333 335 333 329 327 327 326 326 326 327 330 332 333 331 329 327 326 324 326 329 329 333 340 343 345 350 353 355 357 358 359 361 362 360 357 354 354 357 359 360 361 362 365 365 365 364 366 367 369 370 370 369 370 371 371 371 371 371 371 371 370 370 370 369 369 368 368 366 365 363 362 360 361 362 362
311 312 312 310 313 321 322 322 322 323 326 331 331 327 325 326 325 324 323 323 324 326 327 328 327 325 322 322 323 324 325 327 327 330 336 340 342 347 352 355 357 359 358 359 362 360 356 355 356 358 359 360 364 364 366 366 366 365 366 368 369 370 371 369 369 371 370 370 372 370 370 371 371 369 370 369 368 368 367 366 366 365 364 363 361 361 361
313 313 312 311 314 319 321 322 323 323 325 327 324 321 323 324 322 322 321 321 322 324 325 325 324 322 322 322 322 322 323 324 325 327 333 338 340 344 350 353 357 360 360 361 361 359 357 357 358 357 359 362 364 365 366 366 365 365 367 368 369 371 370 369 369 370 369 370 370 369 369 371 371 369 370 369 367 368 368 367 367 367 367 366 364 362 362
314 313 313 314 316 318 319 321 323 322 321 321 320 321 323 322 320 321 320 319 321 322 322 323 324 323 322 321 321 321 322 323 323 326 332 337 339 343 348 352 357 360 362 362 360 358 356 357 357 357 360 363 365 365 367 367 365 366 367 368 369 370 370 369 369 369 368 370 370 368 369 371 371 371 370 368 368 368 368 367 367 366 367 368 366 364 364
315 315 316 317 318 318 317 318 320 320 319 318 318 319 319 318 318 319 319 319 320 320 321 322 323 323 322 321 321 322 322 322 323 327 332 336 339 342 346 350 356 360 361 361 361 360 358 357 358 360 360 362 364 367 367 367 365 366 368 369 370 371 370 369 369 369 368 369 369 367 369 371 371 371 370 369 368 368 368 368 367 367 368 367 367 366 366
316 315 316 316 316 317 317 317 318 318 318 318 318 318 318 318 318 318 318 318 319 320 321 322 322 322 322 321 321 322 323 323 324 328 332 336 339 342 345 348 353 359 362 361 363 364 361 358 359 361 361 361 365 367 368 367 366 366 368 369 370 370 370 368 368 368 368 369 368 368 368 370 371 371 369 369 368 368 368 368 368 367 367 366 366 366 365
316 316 317 317 317 316 317 316 317 318 317 317 318 318 318 318 318 317 317 317 318 320 320 321 322 322 322 321 321 322 325 325 325 328 332 335 338 342 344 345 349 355 360 363 365 365 364 361 360 360 360 363 366 367 367 367 365 366 370 370 370 370 369 368 368 368 368 368 369 368 368 369 370 370 370 369 368 369 368 367 367 367 366 365 365 365 366
315 315 317 316 315 315 316 317 318 319 318 317 317 317 316 317 318 317 317 317 318 319 319 320 321 321 321 320 320 322 324 326 326 328 332 335 338 341 342 343 346 351 356 361 363 364 366 366 365 364 362 363 366 367 367 365 365 368 371 370 371 371 370 369 368 368 368 368 368 369 368 368 369 370 369 368 368 368 368 366 366 366 366 365 366 366 366
315 316 316 314 314 316 317 316 317 318 317 316 316 315 316 317 317 317 317 317 317 319 319 319 320 321 321 321 320 321 324 326 327 328 331 334 336 339 341 342 343 346 350 355 357 360 363 364 366 368 367 365 366 366 366 365 366 370 372 372 372 372 371 370 370 368 368 368 368 369 369 367 367 369 369 366 368 370 369 368 368 367 365 367 367 367 366
315 315 314 312 314 316 315 313 314 315 315 316 316 316 316 317 317 318 318 318 318 318 320 319 320 322 322 321 321 321 323 326 328 329 331 332 335 338 341 341 342 343 345 348 350 354 358 361 363 366 367 367 367 367 366 366 366 370 372 372 372 372 371 371 370 370 369 368 368 370 369 367 365 364 364 364 367 369 368 368 368 368 367 367 367 366 367
312 312 311 311 312 313 312 312 313 314 314 315 316 316 317 318 318 318 318 319 319 319 319 320 320 321 322 322 322 322 323 325 327 329 330 331 333 337 339 340 341 341 343 345 347 348 352 357 360 362 364 364 365 366 368 368 367 370 371 371 370 371 371 371 371 371 369 368 369 369 370 370 367 364 361 361 362 365 367 367 367 366 367 367 366 367 368
310 310 310 311 311 312 312 312 312 313 315 317 317 317 317 318 318 318 318 319 320 319 319 320 321 321 321 321 322 323 324 324 325 327 330 330 330 333 336 337 339 340 340 341 344 345 348 353 356 357 358 360 361 363 367 369 370 369 370 370 369 369 370 371 371 370 369 369 370 370 368 371 371 369 366 363 360 359 361 364 366 365 365 365 365 366 368
309 310 310 311 312 312 312 312 312 314 315 316 317 317 318 319 319 319 319 319 320 319 319 319 321 322 322 321 322 324 325 324 323 325 329 329 329 330 332 335 337 338 338 339 340 342 344 347 350 352 354 356 359 361 365 368 370 370 369 369 368 369 370 370 370 371 370 369 370 370 369 371 372 372 371 369 365 359 357 359 363 363 363 363 363 364 364
310 310 310 311 312 312 311 312 313 313 314 316 317 317 319 319 319 319 320 319 319 320 320 320 321 322 322 322 322 323 324 324 324 325 327 328 328 329 330 332 334 336 336 336 338 340 342 343 344 346 348 350 354 359 361 364 368 370 370 369 370 370 371 371 369 370 370 370 370 371 370 371 373 372 372 372 370 366 359 358 360 362 362 362 363 362 362
310 311 311 311 311 311 311 312 313 313 314 316 316 317 319 319 319 319 319 319 319 319 319 319 320 321 321 321 322 322 322 323 324 325 326 327 328 328 329 330 332 333 334 335 336 337 339 341 341 342 343 344 347 353 358 360 361 363 366 369 371 372 370 370 371 372 370 370 370 370 371 371 373 373 371 370 370 370 366 364 364 362 357 356 360 362 361
310 311 311 311 311 311 311 311 312 312 313 315 316 317 319 319 317 317 318 318 319 319 319 320 320 320 320 321 321 321 322 323 324 325 326 326 327 328 329 330 331 332 332 333 334 335 337 338 338 339 340 341 343 347 354 356 356 356 359 364 366 364 363 362 363 365 368 369 369 368 371 371 370 369 368 366 366 367 366 365 363 356 349 350 355 358 359
310 311 310 311 311 311 311 311 311 311 313 314 316 317 318 318 317 317 317 318 318 318 319 319 320 320 319 320 320 320 322 323 324 325 325 325 326 327 328 329 330 330 330 331 332 333 334 335 335 336 338 339 341 343 348 353 354 353 353 356 357 357 357 359 360 361 365 368 369 369 369 369 367 366 364 363 364 365 362 357 354 349 345 346 348 348 350
310 310 311 311 311 311 311 311 311 311 311 313 314 315 316 317 318 317 318 318 317 318 319 320 320 320 319 319 319 320 321 322 322 324 325 325 325 326 326 328 329 330 330 330 330 330 331 332 332 333 334 337 339 340 343 348 351 351 351 350 349 349 353 358 362 364 366 367 367 367 367 366 367 367 365 363 365 362 357 352 349 346 344 345 344 342 342
309 310 310 310 311 311 311 311 311 311 311 311 312 314 315 317 318 318 317 317 317 318 319 319 320 320 320 319 320 320 321 322 323 325 325 325 325 326 325 326 328 329 329 328 328 328 328 328 329 330 332 334 337 338 340 342 345 347 349 349 347 346 348 351 354 357 358 361 363 364 365 365 364 362 360 359 360 358 353 351 349 347 345 345 344 341 338
309 310 310 310 310 311 311 310 311 311 311 311 312 313 314 316 318 318 317 317 317 318 317 317 318 319 319 320 321 322 322 323 324 324 324 324 324 324 325 325 327 328 327 325 325 325 326 326 327 328 330 332 334 336 338 339 341 343 345 346 346 344 344 345 347 348 348 349 350 353 355 356 356 355 355 355 355 354 351 350 348 348 347 345 343 341 338
310 310 310 310 310 310 310 310 310 310 310 311 312 312 312 314 317 318 318 317 318 318 317 317 317 318 319 321 322 323 323 323 323 323 322 322 322 323 324 324 325 326 324 323 323 323 324 324 324 327 329 331 331 333 335 337 339 340 341 341 342 341 340 341 343 343 343 343 342 342 344 345 346 347 348 348 349 349 349 347 347 346 345 343 341 340 339
310 310 310 310 310 310 310 310 310 310 310 311 311 312 312 313 315 317 319 319 319 318 318 318 318 319 321 322 322 322 322 322 321 321 321 321 321 322 322 323 324 324 323 321 321 322 322 322 323 325 328 329 330 331 332 334 337 339 339 338 338 339 338 338 339 339 339 340 339 338 337 338 339 340 341 342 343 343 342 341 340 340 339 337 336 336 336
310 309 309 310 310 310 310 309 309 309 310 310 310 311 311 312 313 315 317 318 319 318 319 319 319 320 320 320 320 321 321 321 321 320 320 319 319 320 321 321 321 322 321 319 319 320 320 321 321 323 326 328 328 328 330 332 335 338 338 336 335 336 336 335 335 334 335 335 334 333 332 332 332 333 334 336 336 336 335 333 332 332 332 332 332 332 333
309 309 309 309 310 310 309 310 309 310 310 310 311 311 311 311 311 312 313 315 316 317 318 318 318 318 318 318 318 319 319 320 320 320 319 318 317 318 319 319 319 320 320 319 318 318 319 319 320 321 323 325 325 325 327 330 333 335 335 335 334 334 333 333 332 331 331 330 330 329 328 327 326 326 326 327 328 330 330 330 328 328 328 328 328 329 329
309 310 310 309 309 310 309 309 309 309 310 310 310 310 310 310 310 310 311 312 313 315 316 316 316 316 316 316 316 316 317 318 319 319 318 317 316 316 316 317 317 317 318 317 317 317 317 318 318 319 320 321 322 322 324 327 329 331 332 332 331 331 330 330 329 327 327 327 327 326 325 324 323 322 321 321 321 322 324 325 326 326 325 325 325 325 324
309 309 309 309 309 309 309 309 309 309 309 309 309 310 310 309 309 309 309 310 311 312 314 314 315 315 315 315 315 315 316 316 317 317 317 316 315 315 315 315 315 315 315 315 315 316 316 316 317 317 318 318 319 320 321 323 325 326 328 328 327 326 326 325 324 323 323 323 323 322 322 321 320 319 318 317 316 316 317 318 319 320 320 320 320 319 318
309 309 309 309 308 308 308 309 308 309 308 309 309 309 309 309 308 308 308 309 309 310 311 312 313 313 313 314 314 314 315 315 315 316 316 316 315 314 313 313 313 313 313 313 314 314 315 315 315 315 315 316 317 317 318 319 321 322 323 323 322 321 321 320 320 319 319 319 318 318 318 318 317 317 315 315 314 314 313 313 313 313 313 314 314 313 313
309 309 309 309 308 308 308 308 308 308 308 308 308 308 309 308 308 308 308 308 308 309 309 310 311 312 312 313 313 313 313 313 313 314 314 314 314 314 313 312 312 311 312 312 312 313 313 313 314 314 314 314 314 315 315 316 317 317 318 317 317 317 316 316 316 316 315 315 315 315 315 315 314 314 313 312 312 312 311 311 310 310 310 311 310 310 310
309 309 309 309 308 308 308 308 308 307 307 307 308 308 308 308 308 307 307 307 307 308 308 309 309 310 311 311 311 312 311 311 311 311 312 312 312 313 312 311 311 310 310 310 310 311 311 311 312 313 313 312 312 312 312 313 313 313 314 314 314 313 313 313 313 313 312 312 312 312 312 311 311 311 311 310 310 309 309 309 308 309 309 309 309 309 309
309 308 308 308 308 308 307 307 307 307 307 307 307 307 307 308 308 307 307 307 307 307 307 308 308 309 309 309 310 310 311 311 310 310 310 310 310 311 311 310 310 310 310 309 309 309 309 310 310 311 311 311 311 310 310 310 310 310 310 310 310 310 310 310 310 309 309 309 310 310 309 309 308 308 308 307 307 307 307 307 307 307 307 307 307 307 307
309 308 308 308 308 307 307 307 307 307 307 307 306 307 307 307 307 307 307 307 307 307 307 307 307 307 308 308 309 309 309 310 310 309 309 309 309 309 309 309 309 309 309 309 308 308 308 308 309 309 309 309 309 308 308 308 308 308 308 308 307 307 307 307 307 307 307 306 306 306 307 306 306 306 305 305 304 304 305 305 305 305 305 305 305 305 305
308 307 308 308 307 307 307 307 307 307 307 307 306 306 306 306 306 307 307 307 306 307 307 307 307 307 307 307 307 308 308 309 309 309 309 309 308 308 307 308 308 308 308 308 307 307 307 307 307 307 307 308 307 307 307 307 307 307 306 306 306 306 305 305 305 305 305 305 305 305 305 304 304 304 304 303 303 303 303 303 303 303 303 303 303 303 303
308 307 307 307 308 307 307 307 307 307 307 306 306 306 306 306 306 306 306 306 306 306 306 306 306 307 307 307 307 307 307 307 307 308 308 308 308 307 307 307 307 307 306 306 306 306 306 305 305 305 305 305 305 305 306 306 306 306 305 305 304 304 304 304 303 304 304 304 303 303 303 303 303 303 303 302 302 302 302 302 302 302 302 301 301 302 302
309 308 308 307 308 308 307 306 306 306 306 306 306 306 306 306 306 306 306 306 306 306 306 306 306 306 307 307 307 307 306 306 306 306 306 307 307 306 306 306 305 305 305 305 305 305 305 304 304 303 303 303 303 303 304 304 305 305 305 304 304 304 304 303 303 303 303 302 302 301 301 301 301 301 301 301 301 301 300 300 300 300 300 300 300 300 300
308 308 308 308 308 308 307 307 306 306 306 307 307 306 306 306 306 305 305 305 305 306 306 306 306 306 306 306 306 306 306 306 305 305 305 305 305 305 305 305 305 304 304 304 304 304 303 303 303 303 303 303 303 303 303 303 304 304 304 304 303 303 303 303 303 302 302 302 301 301 301 301 300 300 300 300 299 299 299 299 299 299 299 298 299 299 299
307 307 308 307 307 307 307 307 307 307 306 307 306 306 306 305 305 305 305 305 305 305 305 305 305 305 306 306 306 306 306 306 305 305 304 304 303 303 304 304 304 304 304 303 303 303 303 303 302 302 303 303 303 302 302 303 303 303 303 303 302 302 302 302 302 302 302 301 301 301 300 300 300 299 299 299 299 299 299 298 298 298 298 297 298 298 298
306 306 306 307 307 306 306 307 307 307 307 306 306 305 305 305 305 305 305 305 304 305 305 305 305 305 305 305 305 305 305 305 305 305 304 303 303 302 302 302 303 302 302 302 302 302 302 302 302 302 302 302 302 302 302 302 302 302 302 302 302 302 302 302 302 302 301 301 301 301 301 300 300 299 299 299 299 299 299 299 299 299 298 298 298 298 298
306 306 306 306 307 306 306 306 307 307 307 306 305 305 305 305 304 304 305 305 304 304 304 304 304 304 305 305 305 305 305 305 305 304 304 304 303 303 302 302 302 301 301 301 301 300 300 300 300 301 301 301 301 301 301 301 301 301 301 301 301 301 301 301 301 301 301 301 301 301 301 300 300 300 300 300 300 300 299 299 299 299 299 299 299 299 298
306 306 306 306 306 306 306 306 306 307 307 306 305 304 304 304 304 304 304 304 304 304 304 304 304 304 304 304 304 305 305 304 304 304 304 304 304 303 303 303 302 302 301 300 300 300 299 298 298 298 298 299 300 300 300 300 300 299 299 299 300 300 300 300 300 300 300 301 301 301 301 301 300 300 300 300 299 299 299 299 299 299 298 298 298 298 298
305 305 306 306 305 305 304 305 306 306 305 305 304 304 304 304 304 304 304 304 304 304 304 304 304 304 304 304 304 304 304 304 304 304 304 304 303 303 303 303 303 302 302 301 300 300 299 299 298 297 297 297 297 297 298 298 298 298 298 298 298 299 299 299 299 299 299 299 299 300 300 300 299 299 299 299 299 299 299 299 299 298 298 298 298 298 297
Wind_Speed
19 22 22 19 17 16 16 18 18 15 18 20 18 16 17 18 13 10 13 15 14 13 9 8 7 4 4 6 5 3 3 5 7 5 2 4 7 9 9 8 9 9 10 12 14 16 19 23 25 25 26 28 28 28 29 30 30 31 32 32 33 33 33 33 34 34 34 33 32 32 31 31 30 28 28 28 27 26 25 25 25 25 25 24 24 23 24
18 20 21 20 18 18 18 19 19 16 16 18 16 18 21 20 20 17 14 12 11 14 12 7 12 7 5 7 5 2 4 3 5 4 2 2 3 5 6 7 8 10 11 12 14 15 16 20 23 24 25 26 28 29 30 31 31 31 31 32 33 33 33 33 32 32 32 31 31 32 31 31 31 29 28 28 28 27 26 25 25 25 25 25 24 24 24
14 17 19 20 20 20 20 20 19 17 17 16 15 17 19 20 23 23 21 16 10 13 15 2 10 7 7 8 8 4 4 2 2 4 5 5 6 6 5 3 1 3 7 10 12 14 15 19 23 23 24 26 28 29 29 31 31 31 32 32 32 32 31 31 31 31 31 31 31 32 31 30 31 30 28 28 28 28 27 26 25 25 25 25 25 24 24
11 14 17 19 20 21 22 21 20 19 17 15 14 15 17 18 20 23 23 19 10 11 16 7 8 9 10 10 10 6 4 5 6 7 8 7 7 7 7 8 8 6 6 9 12 15 17 20 24 24 24 25 27 28 30 32 32 31 32 32 31 31 30 30 31 31 31 31 31 31 31 30 30 30 29 28 28 28 27 26 25 24 25 25 25 24 24
11 13 16 17 17 18 19 18 19 19 17 17 16 17 18 18 18 18 17 15 12 14 15 8 8 9 11 10 9 8 7 9 9 8 9 9 8 8 9 9 9 9 8 7 9 14 18 21 24 26 27 26 27 29 29 30 31 30 30 31 31 30 29 29 30 31 31 31 31 31 31 31 30 30 29 28 28 28 27 26 25 24 25 25 25 24 23
10 13 14 13 13 14 13 12 16 19 20 21 21 19 19 19 18 17 14 13 12 9 7 7 7 9 11 11 11 10 10 11 11 9 8 8 7 8 9 9 8 9 9 8 10 11 15 21 24 26 28 27 27 27 27 28 29 29 29 29 30 30 29 29 30 30 30 30 30 31 31 30 29 29 30 29 27 26 26 25 24 24 24 24 25 25 24
9 11 11 11 12 12 9 11 16 18 19 21 23 22 23 22 19 17 17 15 12 5 6 6 7 9 12 13 13 13 12 12 12 10 8 8 8 9 9 9 9 9 9 9 12 14 15 19 23 25 26 27 27 26 28 29 30 29 29 29 29 29 29 29 30 31 31 30 29 30 30 30 29 29 29 28 27 26 25 25 24 24 24 24 24 25 25
9 9 10 10 10 10 11 14 17 16 14 15 19 22 23 20 14 11 13 14 13 8 7 7 8 9 11 12 12 10 10 11 11 10 9 10 11 11 11 11 11 11 11 12 13 14 16 18 21 25 27 28 28 27 28 30 30 30 29 28 29 29 29 30 30 32 32 31 30 29 29 29 29 29 29 28 27 25 24 24 24 23 23 24 24 24 25
9 9 10 9 10 11 13 15 14 12 10 10 10 11 13 14 12 7 6 7 7 7 7 9 10 10 10 10 8 6 13 15 13 12 12 12 13 13 13 14 15 15 15 15 15 15 16 18 20 24 27 28 28 28 28 29 30 30 30 29 30 30 30 30 31 31 32 31 30 29 29 29 28 28 28 27 27 25 24 24 24 23 23 23 23 24 24
9 10 9 9 10 10 9 7 6 7 8 6 3 2 6 9 8 4 3 2 3 7 8 10 11 10 9 10 4 9 16 17 16 15 13 13 14 14 15 16 17 19 17 16 17 16 15 18 20 22 26 28 28 28 28 29 30 31 31 31 31 31 31 31 31 31 31 30 29 29 29 29 28 28 27 26 26 25 24 24 24 24 23 23 23 24 25
9 10 9 9 10 7 2 5 10 12 13 11 4 4 5 4 2 2 3 2 3 5 7 9 9 7 8 7 2 12 17 17 16 16 14 14 15 16 17 17 18 19 20 19 20 20 16 17 20 21 25 29 29 28 29 30 31 31 32 33 32 32 32 31 30 30 30 30 30 29 29 29 28 27 27 26 25 25 24 24 24 24 23 23 23 24 24
11 11 9 8 8 3 4 7 9 11 13 12 5 7 4 2 4 4 3 1 2 3 5 6 4 3 4 5 7 13 17 16 15 15 15 15 16 17 19 19 19 20 21 19 18 18 16 16 20 22 25 28 28 28 29 30 31 32 33 34 33 31 31 30 29 29 29 30 30 29 29 28 27 26 26 25 24 24 24 23 23 23 24 23 23 24 23
13 13 11 9 7 1 5 8 8 9 10 7 4 3 2 4 3 2 3 3 3 3 3 3 2 3 6 9 11 14 15 15 15 15 17 18 18 19 19 20 21 21 19 18 17 16 15 15 18 21 25 26 26 27 28 28 30 32 32 31 30 30 30 29 29 29 28 29 29 28 27 27 26 25 25 24 24 24 23 22 22 22 23 23 23 23 23
11 11 10 11 7 1 7 10 6 7 6 4 1 5 8 5 5 4 4 4 4 3 3 3 4 6 8 10 12 14 15 16 16 16 17 18 19 19 19 19 21 20 17 17 16 14 13 14 17 21 24 24 23 24 26 28 30 30 29 29 29 29 29 29 28 28 28 28 27 26 25 26 26 25 25 24 24 23 22 21 21 21 21 22 22 21 22
10 10 11 11 7 2 8 8 4 6 4 2 2 7 8 4 5 5 4 4 4 4 4 5 6 8 10 11 13 15 15 16 16 17 17 17 17 18 18 18 19 20 18 17 14 13 13 14 17 21 23 22 22 23 25 27 27 26 26 28 29 28 28 28 28 27 27 27 26 25 25 26 26 25 25 24 23 23 22 21 21 21 20 20 20 20 20
7 9 7 4 2 4 8 6 3 3 3 2 4 7 7 5 5 5 4 4 5 5 5 6 6 8 10 11 13 14 15 16 17 16 16 17 16 17 18 19 20 21 19 15 13 12 13 13 16 19 22 21 20 22 23 23 23 24 25 27 27 27 27 27 27 26 25 26 25 24 24 25 25 24 24 23 22 22 22 21 20 20 20 20 19 19 19
5 7 5 4 4 4 6 6 4 3 2 2 4 6 6 6 6 6 5 5 6 6 6 6 7 8 9 10 12 13 14 15 16 15 16 18 17 16 17 18 20 22 17 10 9 9 11 13 14 16 20 21 20 20 21 22 22 23 24 26 26 25 26 26 25 25 24 24 24 23 23 24 24 23 23 23 22 22 21 21 20 20 20 20 19 18 19
7 8 7 7 6 6 6 6 4 2 1 3 6 6 5 6 8 8 8 8 8 7 6 7 8 8 10 11 12 11 12 14 15 14 15 17 18 17 17 19 21 22 15 6 5 6 7 11 15 16 18 20 20 19 20 21 22 23 23 24 24 23 24 24 25 24 23 23 23 22 22 23 22 22 22 22 21 21 21 21 20 20 20 20 19 19 19
6 5 5 6 7 9 9 7 3 1 2 4 6 7 6 6 7 9 10 11 10 8 6 7 8 9 11 12 12 11 10 12 13 13 14 16 17 16 17 19 20 20 16 9 4 4 3 4 10 15 17 18 18 20 21 22 23 23 23 23 22 22 22 23 23 24 23 22 22 22 22 22 21 21 21 21 21 21 22 21 21 20 20 20 20 19 19
7 6 6 10 12 11 8 5 2 2 4 7 8 9 9 8 7 9 11 11 11 8 6 7 8 9 11 12 13 12 10 10 12 12 12 15 16 15 17 19 19 17 16 14 12 8 5 3 1 7 13 15 16 19 21 22 23 23 22 22 21 21 22 22 22 23 22 22 21 21 21 22 20 20 21 21 21 22 22 21 21 21 21 20 20 20 19
7 6 6 11 12 8 4 6 7 6 7 9 10 10 11 10 9 9 10 11 11 10 8 7 7 8 10 11 12 12 11 10 11 12 13 15 16 15 15 17 18 17 16 17 18 15 11 8 7 2 5 10 14 17 19 21 22 23 22 21 21 21 21 21 21 21 21 21 21 20 21 20 18 17 18 19 20 20 21 22 22 20 21 21 20 20 20
5 5 8 11 10 7 6 10 12 11 11 12 11 11 11 11 10 9 9 10 11 11 10 9 7 7 9 11 12 12 10 10 11 12 13 15 16 15 15 17 18 18 18 18 19 19 16 11 8 7 5 2 6 12 16 19 21 22 21 21 21 22 21 20 20 20 20 20 20 20 20 19 17 16 15 15 16 16 18 22 23 20 19 19 18 19 19
6 9 11 10 8 8 10 12 12 12 12 12 11 11 11 11 10 9 9 10 10 9 9 10 8 7 7 10 11 11 11 12 14 16 15 15 15 14 15 18 19 19 19 20 20 22 20 15 12 12 12 9 5 1 6 13 18 20 20 20 20 20 19 18 19 20 19 19 19 19 20 19 19 18 15 13 12 12 13 17 20 19 17 15 14 15 16
8 10 10 10 10 10 11 12 13 12 10 10 10 11 11 11 9 8 9 9 10 9 8 9 9 8 8 9 10 11 12 14 17 19 17 15 15 14 14 18 19 19 20 19 20 22 22 19 17 16 16 14 10 8 4 5 15 19 19 19 19 18 17 17 19 19 18 18 18 19 19 18 18 18 16 13 11 9 9 12 15 17 17 14 11 11 12
7 9 10 11 11 9 9 10 11 10 9 9 10 10 11 11 10 9 8 8 8 8 8 9 9 9 8 8 9 11 11 14 18 19 16 15 15 14 18 20 19 17 18 18 19 21 23 22 20 18 18 17 13 10 10 4 9 17 19 17 16 15 16 16 17 17 17 17 17 18 19 19 17 17 17 15 12 10 9 10 11 13 15 15 13 12 11
6 8 11 10 7 6 8 8 8 9 10 11 10 9 11 11 9 8 8 8 8 8 8 8 9 9 9 9 9 11 12 13 17 17 15 15 16 16 19 20 18 17 18 18 20 22 23 23 22 20 20 21 17 13 13 12 7 7 13 16 14 13 15 17 18 16 16 16 17 16 17 17 16 16 16 16 14 13 12 10 9 10 11 13 14 14 12
7 7 8 8 7 8 10 10 10 11 12 11 10 11 12 11 8 7 8 8 9 9 8 8 8 9 9 9 9 10 11 12 14 14 14 16 18 19 19 19 18 19 19 19 21 23 23 23 23 22 24 27 26 19 14 14 16 13 7 9 11 10 10 12 15 16 16 16 16 16 16 15 15 15 14 13 13 14 15 14 12 10 9 10 12 14 14
7 6 7 7 8 10 11 11 11 11 11 11 11 12 12 9 6 6 7 8 9 8 7 7 7 7 8 8 9 9 9 10 12 13 14 16 18 20 20 19 19 19 20 20 21 22 23 23 23 23 26 32 33 26 17 13 16 18 15 12 11 11 10 6 6 9 12 14 14 14 14 13 13 13 13 14 14 12 11 11 11 10 9 9 10 11 13
7 7 7 7 8 10 10 10 11 11 12 13 12 12 13 10 5 5 6 6 6 6 6 6 6 6 7 7 7 8 8 8 10 12 14 15 17 19 21 20 18 19 22 23 23 22 22 22 23 24 28 32 34 32 25 16 14 17 19 19 16 14 11 7 4 7 9 9 10 9 9 9 10 11 12 13 14 11 9 9 10 12 10 9 9 8 9
8 7 7 7 8 10 10 10 11 12 13 14 13 12 13 12 7 4 4 3 4 5 5 3 3 5 6 6 6 7 7 8 10 12 14 16 17 19 20 20 18 18 20 22 23 23 22 21 21 24 28 30 32 33 30 22 15 16 19 21 22 22 20 16 12 10 8 9 10 11 9 8 8 9 7 7 10 11 10 10 11 12 10 9 9 8 9
10 10 10 9 9 11 12 11 11 12 13 14 14 13 13 13 10 4 2 2 2 2 1 1 3 4 5 6 7 6 7 7 9 11 13 15 16 18 19 20 18 16 17 20 20 20 21 21 21 24 29 29 29 29 30 27 22 17 16 18 22 26 26 24 20 17 14 11 10 8 8 6 4 5 9 10 10 10 9 9 11 11 11 11 11 10 11
12 12 12 11 10 11 12 11 12 13 13 14 15 14 13 13 11 7 2 2 3 3 1 2 4 5 6 7 7 6 6 7 8 10 12 13 15 16 17 18 18 17 17 19 19 19 20 22 22 24 27 29 29 28 28 28 26 22 18 18 21 25 27 26 23 20 19 21 21 19 16 14 14 12 11 10 10 10 10 11 12 12 12 13 12 12 13
12 11 12 12 12 12 12 12 12 13 14 14 14 12 12 12 11 9 6 2 3 5 4 2 3 5 6 7 6 6 7 7 8 9 11 12 14 16 16 16 16 16 16 18 19 18 20 22 23 23 24 26 28 28 27 26 24 21 19 19 19 21 23 24 22 19 19 21 23 24 22 21 18 15 11 9 9 9 9 11 11 12 13 13 13 13 15
10 9 10 11 11 11 12 12 12 12 13 13 12 11 12 14 14 12 11 7 3 2 2 1 2 3 4 5 7 7 7 7 7 8 10 11 12 14 15 15 14 14 15 18 19 19 19 21 23 22 21 22 24 24 24 24 22 17 16 17 17 18 18 20 21 20 18 18 18 18 19 19 17 14 12 11 10 9 10 12 13 13 13 14 15 15 14
10 9 10 11 11 11 12 11 11 12 12 12 12 11 12 15 17 16 15 13 10 8 8 7 5 5 7 8 7 7 8 8 8 9 11 12 12 12 14 15 14 14 15 18 20 19 18 19 21 20 18 19 20 21 21 19 17 13 12 14 17 19 18 17 18 19 18 17 16 15 15 16 15 14 13 13 12 12 12 13 13 13 12 12 14 17 15
10 9 8 9 11 13 13 12 12 13 12 11 11 12 13 17 19 19 18 16 14 13 12 11 10 10 9 8 8 8 9 10 10 11 12 13 13 13 14 15 16 15 15 16 19 19 17 18 19 18 16 16 17 18 19 17 14 12 12 14 17 18 18 18 18 19 18 17 16 15 15 15 15 15 14 13 13 13 13 13 13 13 13 13 16 18 18
9 9 9 9 11 13 13 12 12 13 13 12 13 13 14 17 19 18 18 19 18 16 13 12 10 10 9 9 10 11 11 11 12 12 12 12 13 15 15 15 16 16 14 15 17 18 18 18 18 16 15 15 16 16 17 17 14 12 13 16 17 17 18 18 18 17 17 17 16 15 15 15 15 15 15 15 15 15 16 16 15 15 14 14 16 18 19
9 9 9 10 11 12 13 12 12 13 14 14 16 16 16 16 17 17 18 19 20 18 16 13 11 11 11 11 11 12 13 13 12 12 12 12 13 15 16 15 14 14 14 14 15 16 16 17 17 16 15 15 15 15 15 15 15 15 15 16 17 17 18 18 17 17 17 17 17 17 16 15 15 15 15 15 16 16 17 17 17 16 16 16 16 16 19
8 8 9 10 11 11 12 13 14 14 14 14 15 16 16 16 17 17 18 19 19 19 17 15 14 13 13 12 13 14 14 14 13 12 12 13 13 14 16 16 15 14 13 13 14 15 15 15 15 16 16 15 14 14 14 15 16 16 16 16 17 18 18 18 18 17 17 17 18 18 17 17 16 16 15 15 16 16 16 17 16 16 17 18 18 18 18
6 7 8 9 10 11 12 13 14 15 15 15 15 16 16 16 16 16 17 18 19 19 19 17 16 15 15 14 15 15 15 16 16 15 13 13 13 14 14 16 16 16 14 14 14 15 16 16 15 15 17 17 15 14 14 15 16 17 17 17 17 18 18 18 17 17 16 17 17 18 18 18 17 17 16 16 17 17 18 18 17 16 16 18 20 21 22
5 7 8 8 9 10 12 13 14 15 15 15 15 16 16 17 16 15 15 17 18 19 20 19 18 17 16 16 16 16 16 17 18 18 17 15 14 13 12 14 16 16 14 14 15 15 17 18 17 15 16 17 17 15 15 17 17 17 17 18 18 18 18 18 18 18 17 17 17 17 17 17 17 17 17 17 18 18 18 18 18 18 18 18 19 20 21
4 5 7 7 8 9 10 11 12 13 14 15 15 16 16 17 17 16 16 16 17 17 19 20 20 19 18 17 17 17 17 17 18 19 20 19 18 15 12 14 17 18 15 15 15 15 17 19 19 17 16 17 18 19 20 21 21 19 19 19 20 20 20 20 20 20 20 20 20 19 19 18 18 19 19 20 20 20 19 19 20 20 20 20 20 20 19
3 4 6 7 8 8 9 10 11 12 13 14 14 15 15 16 16 16 16 17 17 17 17 19 19 19 18 18 18 18 18 17 16 16 18 20 21 20 17 16 18 19 18 16 16 16 16 17 18 19 19 19 21 23 24 24 24 24 23 22 22 21 21 21 21 21 21 22 21 20 20 20 20 21 22 24 25 24 23 22 22 21 21 22 22 21 21
3 4 5 6 7 7 8 9 10 11 12 12 13 14 14 14 15 16 16 16 17 17 17 17 17 17 18 18 17 18 19 18 16 15 15 16 18 20 19 18 18 19 19 19 18 17 17 17 17 18 19 20 21 23 25 25 26 26 26 25 25 24 24 24 24 23 22 22 22 21 20 20 20 20 22 24 26 26 25 24 23 21 21 21 22 22 22
4 4 4 5 5 6 7 8 9 9 10 11 12 13 14 14 14 15 15 15 17 17 17 17 16 16 16 16 17 17 18 18 17 17 16 14 14 16 19 19 19 19 20 20 20 20 20 20 19 19 19 20 21 22 23 24 25 26 26 27 28 28 28 28 29 28 26 25 26 25 24 22 22 22 23 25 27 28 28 28 27 25 24 24 24 24 24
3 3 3 4 5 5 6 7 8 9 10 10 11 12 13 13 14 14 14 15 15 16 17 17 16 15 15 15 15 15 16 16 17 18 18 16 15 17 19 21 21 21 22 22 22 22 22 23 23 23 22 23 23 23 23 23 24 25 25 26 27 28 28 28 28 28 28 28 30 30 29 28 27 27 27 27 28 28 28 28 28 27 26 26 25 24 24
3 3 3 4 5 6 7 8 9 10 11 10 9 9 11 12 13 13 14 14 14 15 16 17 17 16 16 16 15 15 15 15 16 17 18 18 17 18 20 21 22 23 24 25 25 25 25 26 28 28 27 26 26 26 26 25 24 24 23 23 24 25 25 24 24 24 25 25 26 27 27 28 29 30 30 30 30 30 29 29 29 29 28 28 26 25 25
5 4 3 4 6 7 7 7 6 7 8 8 7 8 10 12 12 13 13 13 13 13 14 15 16 17 17 16 16 16 16 15 14 15 17 18 19 20 22 23 24 23 23 24 25 25 25 26 26 27 28 28 28 27 28 27 26 25 25 24 24 24 24 23 23 23 23 22 22 22 23 24 25 26 28 29 29 28 28 28 27 27 28 28 27 26 25
5 5 4 5 6 8 8 7 4 4 5 6 7 9 10 11 11 12 12 12 13 13 13 13 14 15 15 16 16 16 16 16 16 15 16 18 20 20 22 24 26 26 25 25 25 26 27 26 25 25 26 26 26 26 26 27 26 25 24 24 24 24 23 23 22 22 22 21 21 21 21 22 23 23 24 25 25 25 24 24 24 23 23 23 23 23 22
5 5 5 5 5 6 7 7 5 4 5 6 7 8 9 10 11 11 12 12 12 12 12 12 12 13 14 15 16 16 16 17 17 17 16 17 18 19 20 21 23 25 26 26 27 28 30 30 29 27 25 25 25 24 25 26 26 25 24 23 22 23 23 23 23 22 21 20 21 21 21 21 21 22 22 22 23 23 23 22 22 21 20 20 20 20 19
5 6 6 5 4 3 5 6 6 5 6 6 7 7 9 10 11 11 11 11 11 11 12 12 11 11 12 13 14 15 14 15 16 17 17 16 17 17 18 18 19 20 21 22 23 24 26 29 30 30 29 28 26 25 24 24 24 25 24 23 22 21 21 21 21 21 21 21 20 21 21 20 20 20 21 21 21 21 21 20 20 19 19 19 19 18 18
6 6 5 4 3 3 5 6 6 6 6 7 8 9 10 10 10 11 11 11 10 10 11 11 11 11 12 12 13 13 14 14 15 16 16 16 15 15 16 17 17 17 18 18 19 19 20 21 24 26 28 29 29 28 26 25 24 23 23 23 23 23 22 21 20 20 20 20 20 20 20 20 20 20 20 19 19 19 18 18 17 17 17 17 17 16 16
Wind_Direction
257 265 271 272 276 280 282 284 279 286 301 280 242 230 239 234 233 237 228 229 247 257 221 136 80 30 60 51 27 46 86 100 85 74 131 202 198 179 179 190 191 200 193 176 179 185 187 191 193 193 193 193 194 193 192 194 194 192 189 187 186 185 185 186 186 186 187 189 191 192 193 194 197 199 199 199 199 196 195 198 199 201 203 200 197 196 197
261 265 270 270 272 274 273 275 272 268 283 285 256 230 234 242 244 242 236 233 250 257 233 107 51 359 358 13 345 18 52 61 60 33 333 274 225 176 164 180 186 192 196 187 183 186 190 194 195 195 193 192 194 194 192 193 194 191 188 188 188 187 186 187 185 184 185 186 188 190 191 193 195 197 198 198 198 197 196 197 199 200 203 203 201 198 197
261 262 270 270 266 267 265 264 264 260 262 266 251 231 232 240 239 235 233 231 241 263 257 330 34 333 312 328 306 323 19 25 31 358 343 354 351 358 10 346 299 204 205 199 190 190 194 196 198 199 195 193 195 195 193 193 194 191 188 188 188 188 187 186 183 182 183 184 186 187 189 190 192 194 197 197 198 198 196 197 199 199 200 203 205 202 200
259 255 261 265 262 260 257 254 251 249 247 245 241 239 239 240 238 234 232 231 232 251 256 288 7 321 296 304 302 319 6 1 347 326 320 340 345 339 339 337 337 318 255 219 201 198 201 200 199 200 199 195 195 196 194 193 193 191 189 188 188 188 187 185 183 182 182 183 184 184 186 187 188 191 195 197 198 198 197 197 197 198 199 202 205 205 204
262 256 256 263 262 252 245 243 242 240 240 240 240 243 244 244 242 234 229 232 234 240 254 288 339 314 298 305 311 324 339 337 326 305 304 320 324 318 319 324 322 308 288 256 221 210 206 205 204 202 200 197 197 197 195 192 192 191 189 188 188 187 187 185 183 182 181 181 182 183 183 184 185 187 191 195 197 197 197 197 196 198 200 201 203 206 207
262 263 266 267 259 246 239 240 240 237 235 236 239 245 247 243 239 236 238 241 238 245 284 309 315 312 308 307 308 311 312 306 298 295 305 313 310 305 309 315 311 305 308 304 285 259 227 214 211 207 202 199 198 196 192 191 192 192 189 187 187 187 187 186 184 183 182 181 181 182 182 182 183 185 189 193 195 195 196 196 196 199 200 201 202 204 207
258 265 266 257 247 246 252 258 253 245 239 238 239 242 244 245 241 239 245 250 248 270 329 319 308 312 309 305 303 300 301 306 306 310 319 320 315 310 307 309 306 301 301 292 285 282 260 230 216 209 206 200 196 193 190 189 191 191 188 186 186 186 187 186 185 186 185 184 182 181 181 181 182 185 187 190 192 194 196 198 198 199 200 201 202 203 205
252 257 251 249 258 267 263 259 258 255 249 249 248 241 237 238 236 237 248 252 253 269 306 317 309 305 301 296 291 299 328 347 346 341 334 325 322 317 311 308 304 300 297 287 276 274 270 251 224 209 206 202 194 191 189 187 189 189 187 185 185 185 187 187 186 187 188 187 184 181 181 182 183 185 187 188 190 193 197 201 201 200 201 203 203 203 204
243 250 249 252 268 268 253 246 251 253 250 254 257 250 240 228 215 217 243 253 265 293 322 325 313 309 302 281 274 350 10 4 354 345 334 325 320 315 311 309 306 301 296 290 283 270 260 255 235 211 203 201 194 189 188 187 187 187 187 186 185 185 187 187 186 187 188 188 185 182 182 183 184 186 186 187 189 192 196 201 203 202 203 205 205 205 205
241 247 251 254 256 252 245 260 311 327 312 302 295 267 259 239 214 205 230 249 322 335 335 327 314 302 279 251 245 16 3 349 344 340 332 327 321 316 314 310 305 303 302 300 297 283 258 247 240 218 200 196 192 187 186 185 185 186 187 187 186 185 187 187 186 187 188 186 184 183 184 185 186 186 186 186 188 191 195 202 206 207 207 208 209 209 208
240 241 241 245 249 246 262 342 348 347 338 333 317 222 238 266 316 336 276 255 350 345 325 318 311 286 258 241 341 3 346 338 338 335 331 329 323 316 314 309 305 308 311 308 300 288 265 242 237 222 199 192 191 187 185 184 184 187 188 187 187 186 186 186 186 187 188 186 185 185 185 187 187 186 186 188 189 191 197 203 208 211 211 212 213 213 213
236 238 237 241 246 252 29 6 338 328 333 336 297 221 202 55 27 358 336 341 5 338 308 308 320 312 290 298 335 340 333 331 332 332 332 330 324 317 314 313 314 312 309 301 288 276 260 241 232 218 199 192 191 187 185 184 185 189 190 188 187 186 184 184 186 187 188 187 186 187 187 187 188 188 188 189 190 193 198 203 208 212 214 215 218 218 218
231 231 237 244 235 203 14 350 338 332 325 316 263 237 346 36 48 35 25 17 1 346 332 325 337 337 322 317 324 331 332 333 333 334 332 329 325 320 316 316 317 310 301 296 286 270 256 241 226 212 199 193 190 187 185 186 189 191 190 187 184 183 183 184 186 187 187 187 187 187 187 186 187 188 188 190 191 192 197 202 205 211 214 217 220 221 221
232 229 235 244 230 103 2 332 347 10 325 265 231 329 328 352 35 36 28 22 3 353 359 353 340 336 333 330 334 338 338 338 336 332 331 331 327 322 318 317 316 310 300 294 285 266 249 234 217 207 200 193 188 185 186 190 193 191 186 183 182 182 182 184 185 185 186 186 185 187 187 185 185 187 188 190 191 192 197 201 202 206 211 214 219 222 222
228 228 231 240 233 49 8 339 359 32 0 310 358 330 316 355 35 15 11 24 8 353 3 0 348 346 346 348 350 348 344 341 335 330 330 329 323 321 321 319 317 315 307 294 281 261 242 225 212 205 198 190 186 186 189 193 193 188 183 182 181 180 180 182 183 183 184 183 183 186 187 185 185 186 187 189 190 191 194 196 198 202 205 209 214 219 221
226 226 228 250 274 25 19 6 15 28 12 3 347 331 330 1 14 355 355 8 0 350 344 341 345 351 352 355 356 351 345 339 332 327 328 327 324 324 323 320 321 320 307 285 267 254 237 218 205 200 195 189 186 188 191 194 192 187 183 180 179 179 179 179 180 181 181 180 182 185 186 184 184 184 185 186 188 190 192 194 197 200 201 204 210 215 218
279 263 265 308 327 346 5 9 9 10 359 327 322 328 335 338 339 340 336 336 344 342 331 337 350 352 351 356 358 351 340 333 328 324 324 326 325 325 325 326 329 327 312 278 256 256 234 207 194 196 196 193 190 191 192 192 190 186 181 178 178 178 178 178 178 178 178 178 181 184 184 182 182 184 184 186 187 188 191 194 196 199 200 202 206 211 217
304 293 285 291 301 317 334 343 358 25 358 316 315 319 324 322 321 322 318 319 324 325 329 344 348 347 351 357 358 350 335 325 324 322 321 326 330 334 338 339 337 337 333 307 274 285 247 201 190 194 199 197 193 194 193 190 187 183 178 175 177 177 176 177 176 176 176 176 179 183 183 183 184 185 184 186 187 188 190 194 198 200 202 204 206 209 214
299 304 322 335 322 313 316 317 319 9 344 322 314 311 308 306 306 308 308 308 307 308 331 349 344 345 354 356 354 348 334 323 324 324 322 330 338 340 340 340 341 346 354 1 354 329 302 202 189 195 199 199 196 194 194 191 186 181 175 174 175 175 175 175 175 175 175 174 177 182 184 184 185 186 187 188 189 189 192 195 198 201 203 205 206 206 209
284 283 322 342 321 299 298 312 331 351 335 322 314 310 305 296 287 289 297 302 303 305 328 347 341 344 356 358 350 343 334 327 328 326 324 332 338 339 341 346 351 356 2 14 24 22 14 11 308 210 202 199 196 194 194 192 184 176 174 172 172 173 174 173 174 175 173 174 178 182 184 185 186 187 190 192 192 192 195 198 199 201 203 204 205 206 207
285 275 320 342 325 296 311 359 350 334 325 318 312 308 303 295 285 282 291 300 302 303 315 334 339 346 358 357 347 341 339 333 329 328 329 332 334 340 351 358 2 3 6 13 20 23 28 28 12 343 198 193 192 191 192 189 180 175 174 172 172 175 174 173 174 173 172 176 181 183 183 183 182 181 186 192 194 192 195 200 203 203 202 203 206 208 210
298 315 339 341 324 296 314 334 328 322 321 315 306 301 297 291 285 284 291 297 298 300 309 320 332 351 358 349 343 345 345 335 327 328 331 330 330 341 2 12 11 10 12 13 13 15 19 28 37 39 43 97 180 189 191 186 179 176 175 174 175 177 175 172 172 171 173 178 182 186 185 177 167 164 170 181 189 187 188 196 202 203 202 203 206 209 212
304 315 321 322 312 296 300 309 310 311 311 306 301 298 294 290 288 285 284 288 293 297 303 309 322 348 356 345 345 348 346 344 340 333 331 333 331 336 3 20 18 14 15 15 13 12 11 20 41 47 40 41 55 147 199 189 182 178 176 177 178 178 175 172 169 169 174 179 181 188 190 177 163 160 160 164 176 181 180 188 197 201 200 198 197 199 202
305 306 312 313 304 296 299 304 303 301 300 301 302 298 292 291 290 279 271 277 288 297 300 302 311 331 346 348 350 346 345 350 344 333 334 342 339 342 14 30 24 17 15 14 13 12 11 17 32 39 33 29 31 24 16 192 189 183 179 180 181 177 173 170 167 168 175 180 181 188 193 184 169 163 161 158 158 162 166 177 190 200 202 199 193 187 184
317 317 318 309 293 293 307 308 301 298 301 302 298 291 290 294 291 278 270 270 276 286 295 298 303 320 336 345 347 345 348 348 341 336 341 346 346 3 29 34 28 23 19 14 14 16 17 17 21 27 25 17 12 17 23 33 183 182 179 178 177 174 171 167 165 170 177 180 181 185 191 190 180 173 177 178 169 159 160 168 179 192 201 206 205 198 189
330 325 325 317 298 307 326 320 309 314 315 309 303 300 298 297 293 286 279 270 267 273 282 289 297 311 323 333 341 347 349 343 337 339 347 349 351 11 29 30 28 28 24 20 18 20 23 22 18 18 18 11 6 12 23 29 57 144 170 174 168 165 168 168 167 172 179 183 183 185 189 191 185 180 187 193 186 172 165 170 179 186 197 208 211 212 212
345 339 342 342 333 333 337 332 324 323 320 316 318 316 307 297 288 284 277 265 262 264 267 275 288 302 315 328 338 343 346 344 340 344 355 357 358 8 20 25 28 29 28 27 22 19 24 26 20 15 12 8 6 9 22 35 41 47 80 141 140 130 141 159 166 171 176 180 182 184 188 189 189 189 191 198 199 187 179 185 188 177 174 194 207 212 218
356 356 359 356 342 336 336 332 327 326 326 327 330 328 319 304 279 266 266 259 254 255 258 265 274 289 310 328 338 340 345 351 349 350 357 1 360 3 11 18 25 29 29 29 25 21 24 26 22 16 11 8 5 4 12 36 44 42 51 78 94 90 88 107 158 174 175 175 177 182 184 185 192 198 197 200 205 196 180 177 169 146 144 175 194 202 210
5 2 3 358 345 340 342 341 340 343 345 344 345 343 336 326 299 256 257 259 256 254 253 254 264 283 302 319 334 341 348 358 356 353 356 1 2 3 6 11 20 29 31 28 24 22 21 21 17 13 11 11 8 4 5 23 47 53 56 62 65 64 64 72 128 165 163 152 148 155 163 171 190 204 205 203 198 177 138 125 127 123 134 160 168 169 182
11 10 4 357 349 349 355 354 351 355 356 352 351 351 345 338 325 274 244 247 255 255 250 250 278 299 308 317 330 339 346 356 358 355 357 1 3 4 6 9 16 26 28 24 21 19 19 17 11 6 7 13 14 8 2 7 31 56 64 62 56 52 51 59 80 104 112 112 118 132 143 161 193 200 185 168 167 154 125 113 120 123 134 151 151 142 147
10 15 9 2 357 357 0 359 357 1 2 356 355 356 350 343 336 311 235 211 231 251 283 313 298 302 318 326 331 335 342 351 358 3 4 3 2 5 9 11 15 22 24 20 17 16 18 18 10 2 3 11 18 15 8 5 13 33 55 61 57 52 52 56 63 66 69 77 91 110 125 126 123 120 112 114 131 139 130 127 133 136 145 154 152 143 140
7 14 10 7 5 2 3 4 1 2 3 2 2 360 350 343 342 338 311 208 177 158 128 295 289 308 325 325 324 339 358 8 15 17 13 7 3 7 11 12 15 21 23 20 17 14 16 18 11 1 2 11 18 18 13 8 10 21 37 51 54 50 48 52 56 56 57 61 60 58 63 67 66 72 91 110 124 133 140 146 149 151 153 150 143 139 143
8 13 10 8 9 7 6 7 3 1 3 5 4 2 356 352 351 350 348 348 164 162 166 203 258 291 307 316 333 360 17 26 29 26 23 15 9 9 12 13 16 22 24 22 19 16 16 16 9 1 2 12 20 21 14 6 7 18 31 43 51 51 46 47 52 52 52 57 58 56 57 60 59 61 73 93 111 129 139 139 139 141 139 131 127 135 147
13 19 13 11 13 12 10 9 5 2 3 6 7 7 3 0 0 1 4 12 37 120 129 154 240 279 316 354 12 16 20 28 31 28 28 26 17 11 13 16 19 23 26 25 23 20 17 12 6 2 5 11 19 26 23 8 2 15 34 44 52 55 50 48 52 52 49 50 53 55 57 59 57 56 65 81 99 111 108 103 107 115 117 114 116 127 141
18 23 18 17 20 20 17 14 9 7 8 8 10 11 9 6 7 6 8 15 26 37 43 46 44 38 37 34 29 28 30 36 41 39 36 34 27 18 17 20 22 23 25 25 22 19 16 12 8 9 15 16 17 26 29 16 2 8 34 51 59 61 58 55 57 57 54 53 52 52 57 61 61 60 63 74 86 93 94 94 96 99 100 105 112 115 118
22 25 20 19 21 23 24 20 14 12 12 9 7 9 12 14 14 10 6 10 20 31 42 47 47 45 43 37 34 38 40 42 46 47 43 38 32 26 26 27 25 21 20 20 16 12 11 12 12 15 24 26 19 19 27 27 15 8 23 45 56 60 59 57 58 59 60 60 59 58 60 63 65 65 66 68 73 81 90 95 96 95 94 98 103 104 100
29 30 24 22 24 27 31 30 21 16 16 14 14 17 18 17 17 13 9 10 14 23 37 47 48 46 44 41 41 43 43 43 46 50 50 46 39 33 33 32 27 23 18 11 6 5 6 10 13 18 27 31 24 15 20 30 30 22 28 41 49 54 58 59 58 57 59 61 62 62 61 61 62 63 64 65 67 71 79 86 91 92 91 91 94 95 92
33 34 30 27 27 30 35 38 35 30 24 19 19 25 28 25 20 16 16 18 17 18 26 38 47 50 48 45 45 46 43 42 44 46 49 52 49 43 39 34 29 26 18 4 0 5 8 10 17 23 27 31 28 19 20 32 38 36 38 44 47 51 57 59 57 56 56 57 60 60 60 61 61 60 59 62 65 67 71 76 79 80 80 80 81 83 87
33 38 38 35 30 30 33 36 37 37 35 28 22 23 28 31 27 22 23 24 22 20 23 29 39 46 47 46 45 45 42 40 41 42 43 47 50 51 48 41 33 29 22 12 11 15 14 15 25 32 30 31 33 28 28 38 45 45 46 50 51 52 56 59 59 59 57 57 60 61 61 62 63 62 60 60 62 63 65 67 67 68 71 75 77 78 82
32 37 42 42 35 31 33 34 33 33 34 34 29 25 26 31 32 30 27 27 27 28 29 30 34 40 44 45 46 45 42 40 39 39 40 42 44 47 48 41 33 29 27 24 25 25 22 24 33 37 35 37 40 38 39 47 52 52 53 55 56 56 58 60 62 63 61 60 61 62 62 62 63 64 64 63 61 62 63 64 65 66 69 75 80 82 82
32 35 44 48 41 34 34 36 36 33 31 31 30 29 28 32 36 36 32 30 30 31 32 34 36 37 37 39 43 46 47 46 44 41 40 41 40 41 43 36 29 26 27 28 30 31 32 35 39 42 42 46 51 53 54 58 59 58 58 60 61 62 63 64 64 65 65 64 64 64 64 65 64 64 63 63 64 64 63 64 66 69 71 75 81 83 82
31 32 41 47 44 38 37 38 39 38 35 32 30 29 30 33 36 38 37 35 34 33 32 34 37 37 35 35 38 40 43 48 50 48 46 44 40 39 40 35 29 26 29 34 35 36 39 42 46 48 50 54 58 62 65 66 65 65 64 65 65 66 67 67 67 66 66 67 68 68 69 69 69 68 67 66 66 67 68 67 69 71 74 77 78 78 77
56 44 40 39 37 36 37 37 38 41 42 38 34 32 33 34 35 36 37 37 38 38 35 33 35 38 38 37 36 35 35 38 44 49 52 51 46 41 39 37 33 31 34 40 43 43 44 47 50 55 60 63 65 68 69 69 69 68 68 66 66 67 69 70 70 69 67 67 67 68 69 71 73 74 73 71 69 68 69 69 70 72 75 77 78 77 76
64 47 39 35 31 28 29 32 37 42 45 44 40 37 36 36 36 37 37 37 37 39 39 36 35 37 40 41 41 39 34 32 35 42 50 53 49 43 40 40 41 41 42 46 49 49 50 51 54 59 64 65 66 69 70 70 70 71 71 70 68 68 68 69 71 71 70 70 69 69 69 71 73 75 77 76 74 72 70 69 70 70 72 73 73 73 73
50 32 26 27 24 20 20 25 33 38 42 46 48 45 41 39 40 40 40 39 38 39 41 41 38 37 40 45 49 49 43 38 36 40 46 51 49 43 40 42 45 47 49 53 54 54 53 54 55 58 60 61 62 66 68 70 72 74 75 74 73 71 70 71 72 73 73 75 77 76 74 72 73 76 79 81 81 80 78 75 73 71 71 72 73 73 73
50 36 24 10 4 8 13 16 24 35 40 43 47 48 45 44 45 44 43 44 43 41 42 44 43 41 41 45 51 55 54 49 45 45 49 54 55 50 48 49 50 51 53 57 58 57 56 55 54 55 58 61 62 62 63 66 71 75 76 75 76 75 73 73 74 74 75 77 80 81 79 78 78 79 79 80 81 82 81 79 77 75 74 74 74 74 73
20 34 30 1 355 10 17 9 10 27 37 37 40 48 49 48 47 47 47 46 46 45 44 44 44 44 45 47 50 52 55 57 55 52 51 55 57 55 52 52 53 54 56 57 58 58 59 58 56 56 59 62 63 63 64 66 69 72 72 73 75 77 76 75 75 75 77 79 80 80 81 81 82 82 81 79 79 79 79 79 79 80 80 79 77 75 75
360 11 20 2 358 15 26 17 11 26 35 29 27 42 52 52 48 48 50 50 48 47 46 45 45 44 44 48 53 54 54 58 62 60 56 58 60 57 53 51 51 52 54 54 52 51 53 55 56 58 60 61 61 62 64 67 68 68 69 70 72 74 76 77 76 76 77 77 77 78 79 80 81 80 80 79 79 77 77 78 78 79 80 79 78 76 75
353 360 14 14 10 15 21 21 21 43 49 36 26 33 45 49 46 45 48 51 52 51 49 47 46 43 43 47 54 59 61 64 69 70 67 65 64 61 58 55 53 52 53 53 51 48 50 53 54 55 57 59 59 59 60 62 64 65 65 66 67 68 69 71 74 77 78 78 77 77 78 78 78 78 78 78 78 76 75 76 76 76 76 76 75 74 74
351 0 16 29 34 31 25 21 22 43 55 45 32 32 41 47 45 41 40 44 50 54 55 52 49 47 46 48 53 59 63 68 73 76 75 72 70 68 65 62 60 58 56 54 52 52 54 56 56 54 54 56 57 57 58 60 60 61 60 60 60 61 63 65 68 71 73 74 75 76 75 75 76 75 75 75 75 74 74 75 75 74 74 74 73 71 71
1 18 26 29 37 52 44 33 29 38 48 43 31 28 38 46 49 47 44 42 44 51 57 58 56 54 52 52 55 59 65 70 74 75 74 72 71 71 70 68 68 66 63 58 55 54 54 56 57 58 59 58 57 56 56 58 60 61 61 59 57 56 58 60 62 64 64 66 68 70 71 72 73 73 72 73 75 76 76 76 75 74 73 73 73 72 72
17 28 26 14 23 57 66 55 43 40 43 43 36 30 33 38 42 46 48 47 45 49 56 62 63 62 61 61 62 62 65 69 72 72 71 69 68 66 64 64 64 65 63 62 61 59 56 54 56 58 60 60 60 58 56 55 55 57 59 60 60 59 58 58 59 61 63 63 64 65 67 68 69 71 70 71 73 75 76 76 76 76 76 76 76 76 75